Time,TemperatureF,DewpointF,PressureIn,WindDirection,WindDirectionDegrees,WindSpeedMPH,WindSpeedGustMPH,Humidity,HourlyPrecipIn,Conditions,Clouds,dailyrainin,SoftwareType,DateUTC
2013-02-28 00:03:00,28.6,18.5,28.79,NNE,15,3.7,3.8,62,0.00,,,0.00,WSDL version 420,2013-02-28 06:03:00,
2013-02-28 00:08:00,28.6,18.5,28.79,North,360,4.1,5.4,62,0.00,,,0.00,WSDL version 420,2013-02-28 06:08:00,
2013-02-28 00:13:00,28.7,18.6,28.79,North,360,3.5,5.4,62,0.00,,,0.00,WSDL version 420,2013-02-28 06:13:00,
2013-02-28 00:18:00,28.8,18.7,28.79,North,6,3.0,4.9,62,0.00,,,0.00,WSDL version 420,2013-02-28 06:18:00,
2013-02-28 00:23:00,28.8,18.7,28.79,NNE,15,3.1,4.3,62,0.00,,,0.00,WSDL version 420,2013-02-28 06:23:00,
2013-02-28 00:28:00,28.8,18.7,28.79,North,353,4.0,4.9,62,-99.99,,,-99.99,WSDL version 420,2013-02-28 06:28:00,
2013-02-28 00:33:00,28.9,18.8,28.79,North,360,4.0,5.4,62,0.00,,,0.00,WSDL version 420,2013-02-28 06:33:00,
2013-02-28 00:38:00,28.9,18.8,28.79,North,11,2.1,5.4,62,0.00,,,0.00,WSDL version 420,2013-02-28 06:38:00,
2013-02-28 00:43:00,28.9,18.8,28.79,NE,45,3.1,3.8,62,0.00,,,0.00,WSDL version 420,2013-02-28 06:43:00,
2013-02-28 00:48:00,28.9,18.8,28.79,NNW,333,2.2,4.0,62,0.00,,,0.00,WSDL version 420,2013-02-28 06:48:00,
2013-02-28 00:53:00,29.0,18.9,28.79,North,8,3.8,4.0,62,0.00,,,0.00,WSDL version 420,2013-02-28 06:53:00,
2013-02-28 00:58:00,29.1,19.0,28.79,NNW,338,1.3,4.9,62,0.00,,,0.00,WSDL version 420,2013-02-28 06:58:00,
2013-02-28 01:03:00,29.1,19.0,28.79,NE,34,4.5,7.6,62,0.00,,,0.00,WSDL version 420,2013-02-28 07:03:00,
2013-02-28 01:08:00,29.2,19.1,28.79,NNE,15,2.8,7.6,62,0.00,,,0.00,WSDL version 420,2013-02-28 07:08:00,
2013-02-28 01:13:00,29.3,19.2,28.79,NNE,15,5.0,5.6,62,0.00,,,0.00,WSDL version 420,2013-02-28 07:13:00,
2013-02-28 01:18:00,29.4,19.2,28.79,North,360,2.5,5.6,62,0.00,,,0.00,WSDL version 420,2013-02-28 07:18:00,
2013-02-28 01:23:00,29.5,19.4,28.79,NNE,23,2.7,3.4,62,0.00,,,0.00,WSDL version 420,2013-02-28 07:23:00,
2013-02-28 01:28:00,29.5,19.4,28.79,North,360,3.6,3.6,62,0.00,,,0.00,WSDL version 420,2013-02-28 07:28:00,
2013-02-28 01:33:00,29.5,19.4,28.79,NNW,343,2.2,3.6,62,0.00,,,0.00,WSDL version 420,2013-02-28 07:33:00,
2013-02-28 01:38:00,29.5,19.4,28.79,NNE,30,2.2,3.6,62,0.00,,,0.00,WSDL version 420,2013-02-28 07:38:00,
2013-02-28 01:43:00,29.5,19.4,28.79,North,353,2.0,2.9,62,0.00,,,0.00,WSDL version 420,2013-02-28 07:43:00,
2013-02-28 01:48:00,29.5,19.4,28.79,NNE,30,3.1,3.6,62,0.00,,,0.00,WSDL version 420,2013-02-28 07:48:00,
2013-02-28 01:53:00,29.5,19.4,28.79,North,8,3.4,3.8,62,0.00,,,0.00,WSDL version 420,2013-02-28 07:53:00,
2013-02-28 01:58:00,29.5,19.4,28.79,North,360,1.8,3.8,62,0.00,,,0.00,WSDL version 420,2013-02-28 07:58:00,
2013-02-28 02:03:00,29.5,19.4,28.79,NNE,23,2.9,3.6,62,0.00,,,0.00,WSDL version 420,2013-02-28 08:03:00,
2013-02-28 02:08:00,29.7,19.5,28.82,NNW,345,2.3,5.6,62,0.00,,,0.00,WSDL version 420,2013-02-28 08:08:00,
2013-02-28 02:13:00,29.7,19.5,28.82,North,354,2.8,5.6,62,0.00,,,0.00,WSDL version 420,2013-02-28 08:13:00,
2013-02-28 02:18:00,29.7,19.5,28.82,NNE,15,3.2,4.0,62,0.00,,,0.00,WSDL version 420,2013-02-28 08:18:00,
2013-02-28 02:23:00,29.7,19.5,28.82,North,360,1.6,4.3,62,0.00,,,0.00,WSDL version 420,2013-02-28 08:23:00,
2013-02-28 02:28:00,29.7,19.5,28.82,NNW,338,2.2,6.3,62,0.00,,,0.00,WSDL version 420,2013-02-28 08:28:00,
2013-02-28 02:33:00,29.8,19.6,28.82,North,360,4.2,6.3,62,0.00,,,0.00,WSDL version 420,2013-02-28 08:33:00,
2013-02-28 02:38:00,29.8,19.7,28.82,NNW,338,2.7,5.4,62,0.00,,,0.00,WSDL version 420,2013-02-28 08:38:00,
2013-02-28 02:43:00,29.8,19.7,28.82,NNW,343,3.2,4.3,62,0.00,,,0.00,WSDL version 420,2013-02-28 08:43:00,
2013-02-28 02:48:00,29.8,19.7,28.82,NE,34,1.9,4.3,62,0.00,,,0.00,WSDL version 420,2013-02-28 08:48:00,
2013-02-28 02:53:00,29.8,19.7,28.82,NNE,15,2.9,4.7,62,0.00,,,0.00,WSDL version 420,2013-02-28 08:53:00,
2013-02-28 02:58:00,29.7,19.6,28.82,NW,315,3.4,4.7,62,0.00,,,0.00,WSDL version 420,2013-02-28 08:58:00,
2013-02-28 03:03:00,29.8,19.7,28.82,NW,323,2.1,4.0,62,0.00,,,0.00,WSDL version 420,2013-02-28 09:03:00,
2013-02-28 03:08:00,29.8,19.6,28.82,NNE,15,2.0,4.0,62,0.00,,,0.00,WSDL version 420,2013-02-28 09:08:00,
2013-02-28 03:13:00,29.8,19.9,28.82,North,356,3.1,3.8,63,0.00,,,0.00,WSDL version 420,2013-02-28 09:13:00,
2013-02-28 03:18:00,29.8,19.7,28.82,NNW,338,4.8,6.0,62,0.00,,,0.00,WSDL version 420,2013-02-28 09:18:00,
2013-02-28 03:23:00,29.7,19.6,28.82,North,353,3.3,6.0,62,0.00,,,0.00,WSDL version 420,2013-02-28 09:23:00,
2013-02-28 03:28:00,29.7,19.5,28.82,NNE,23,3.0,6.3,62,0.00,,,0.00,WSDL version 420,2013-02-28 09:28:00,
2013-02-28 03:33:00,29.7,19.5,28.82,NNE,15,2.3,6.3,62,0.00,,,0.00,WSDL version 420,2013-02-28 09:33:00,
2013-02-28 03:38:00,29.7,19.5,28.82,NNE,23,2.5,5.6,62,0.00,,,0.00,WSDL version 420,2013-02-28 09:38:00,
2013-02-28 03:43:00,29.7,19.7,28.82,North,360,3.3,4.9,63,0.00,,,0.00,WSDL version 420,2013-02-28 09:43:00,
2013-02-28 03:48:00,29.7,19.6,28.82,NNE,23,4.0,4.9,63,0.00,,,0.00,WSDL version 420,2013-02-28 09:48:00,
2013-02-28 03:53:00,29.6,19.5,28.82,NE,38,3.6,5.8,62,0.00,,,0.00,WSDL version 420,2013-02-28 09:53:00,
2013-02-28 03:58:00,29.5,19.4,28.82,NNE,23,3.4,5.8,62,-99.99,,,-99.99,WSDL version 420,2013-02-28 09:58:00,
2013-02-28 04:03:00,29.5,19.5,28.82,NNE,30,3.4,5.6,63,0.00,,,0.00,WSDL version 420,2013-02-28 10:03:00,
2013-02-28 04:08:00,29.5,19.4,28.82,North,6,4.4,5.8,62,0.00,,,0.00,WSDL version 420,2013-02-28 10:08:00,
2013-02-28 04:13:00,29.5,19.4,28.82,NE,45,4.5,5.8,62,0.00,,,0.00,WSDL version 420,2013-02-28 10:13:00,
2013-02-28 04:18:00,29.5,19.5,28.82,NNW,338,2.8,6.3,63,0.00,,,0.00,WSDL version 420,2013-02-28 10:18:00,
2013-02-28 04:23:00,29.5,19.4,28.82,NNE,15,3.3,6.3,62,0.00,,,0.00,WSDL version 420,2013-02-28 10:23:00,
2013-02-28 04:28:00,29.4,19.3,28.82,NW,308,4.2,7.2,62,0.00,,,0.00,WSDL version 420,2013-02-28 10:28:00,
2013-02-28 04:33:00,29.3,19.2,28.82,North,353,3.7,7.2,62,0.00,,,0.00,WSDL version 420,2013-02-28 10:33:00,
2013-02-28 04:38:00,29.3,19.2,28.82,North,360,4.2,6.0,62,0.00,,,0.00,WSDL version 420,2013-02-28 10:38:00,
2013-02-28 04:43:00,29.3,19.2,28.82,North,6,2.5,6.0,62,0.00,,,0.00,WSDL version 420,2013-02-28 10:43:00,
2013-02-28 04:48:00,29.2,19.1,28.82,NNE,23,1.6,6.0,62,0.00,,,0.00,WSDL version 420,2013-02-28 10:48:00,
2013-02-28 04:53:00,29.1,19.1,28.82,East,83,2.7,5.8,63,-99.99,,,-99.99,WSDL version 420,2013-02-28 10:53:00,
2013-02-28 04:58:00,29.1,19.0,28.82,North,11,3.5,6.0,62,0.00,,,0.00,WSDL version 420,2013-02-28 10:58:00,
2013-02-28 05:03:00,29.1,19.2,28.82,NNE,17,2.6,6.0,63,0.00,,,0.00,WSDL version 420,2013-02-28 11:03:00,
2013-02-28 05:08:00,28.9,19.2,28.82,NNW,338,3.8,4.3,63,0.00,,,0.00,WSDL version 420,2013-02-28 11:08:00,
2013-02-28 05:13:00,28.9,19.2,28.82,NNW,347,2.6,4.3,63,0.00,,,0.00,WSDL version 420,2013-02-28 11:13:00,
2013-02-28 05:18:00,28.9,19.1,28.85,North,353,4.3,4.9,63,0.00,,,0.00,WSDL version 420,2013-02-28 11:18:00,
2013-02-28 05:23:00,28.8,19.0,28.85,North,360,2.8,4.9,63,0.00,,,0.00,WSDL version 420,2013-02-28 11:23:00,
2013-02-28 05:28:00,28.8,19.0,28.85,North,11,3.7,4.9,63,0.00,,,0.00,WSDL version 420,2013-02-28 11:28:00,
2013-02-28 05:33:00,28.7,18.9,28.85,NE,45,3.3,4.9,63,0.00,,,0.00,WSDL version 420,2013-02-28 11:33:00,
2013-02-28 05:38:00,28.7,19.2,28.85,NE,38,4.8,5.6,64,0.00,,,0.00,WSDL version 420,2013-02-28 11:38:00,
2013-02-28 05:43:00,28.6,18.8,28.85,NE,38,4.5,5.6,63,0.00,,,0.00,WSDL version 420,2013-02-28 11:43:00,
2013-02-28 05:48:00,28.6,18.8,28.85,North,360,2.9,5.6,63,-99.99,,,-99.99,WSDL version 420,2013-02-28 11:48:00,
2013-02-28 05:53:00,28.6,18.9,28.85,North,353,3.7,4.7,63,0.00,,,0.00,WSDL version 420,2013-02-28 11:53:00,
2013-02-28 05:58:00,28.6,18.8,28.85,NNE,23,2.5,4.7,63,0.00,,,0.00,WSDL version 420,2013-02-28 11:58:00,
2013-02-28 06:03:00,28.6,18.8,28.85,North,8,1.7,7.4,63,0.00,,,0.00,WSDL version 420,2013-02-28 12:03:00,
2013-02-28 06:08:00,28.5,18.7,28.85,North,360,4.1,7.4,63,0.00,,,0.00,WSDL version 420,2013-02-28 12:08:00,
2013-02-28 06:13:00,28.5,18.8,28.85,North,11,2.5,5.4,63,0.00,,,0.00,WSDL version 420,2013-02-28 12:13:00,
2013-02-28 06:18:00,28.4,19.0,28.85,North,8,4.0,6.5,64,0.00,,,0.00,WSDL version 420,2013-02-28 12:18:00,
2013-02-28 06:23:00,28.2,18.8,28.85,NE,53,3.9,6.5,64,0.00,,,0.00,WSDL version 420,2013-02-28 12:23:00,
2013-02-28 06:28:00,28.2,18.8,28.85,North,360,5.6,5.6,64,0.00,,,0.00,WSDL version 420,2013-02-28 12:28:00,
2013-02-28 06:33:00,28.2,18.7,28.85,North,360,2.8,5.6,64,0.00,,,0.00,WSDL version 420,2013-02-28 12:33:00,
2013-02-28 06:38:00,28.0,18.6,28.85,NNW,338,5.2,5.8,64,0.00,,,0.00,WSDL version 420,2013-02-28 12:38:00,
2013-02-28 06:43:00,28.0,18.8,28.85,North,8,2.9,5.8,64,0.00,,,0.00,WSDL version 420,2013-02-28 12:43:00,
2013-02-28 06:48:00,28.0,18.7,28.85,NE,53,5.4,5.8,65,0.00,,,0.00,WSDL version 420,2013-02-28 12:48:00,
2013-02-28 06:58:00,27.9,18.6,28.85,NE,34,3.1,4.0,64,-99.99,,,-99.99,WSDL version 420,2013-02-28 12:58:00,
2013-02-28 07:03:00,27.9,18.5,28.85,NNE,15,3.1,4.0,64,0.00,,,0.00,WSDL version 420,2013-02-28 13:03:00,
2013-02-28 07:08:00,27.9,18.8,28.85,North,5,2.9,3.4,65,0.00,,,0.00,WSDL version 420,2013-02-28 13:08:00,
2013-02-28 07:13:00,27.9,18.8,28.85,NE,51,2.5,3.4,65,0.00,,,0.00,WSDL version 420,2013-02-28 13:13:00,
2013-02-28 07:18:00,27.9,18.6,28.85,North,8,2.5,6.7,65,0.00,,,0.00,WSDL version 420,2013-02-28 13:18:00,
2013-02-28 07:23:00,27.9,18.8,28.85,North,6,2.4,6.7,65,0.00,,,0.00,WSDL version 420,2013-02-28 13:23:00,
2013-02-28 07:28:00,27.9,18.8,28.85,NW,323,4.2,6.3,65,0.00,,,0.00,WSDL version 420,2013-02-28 13:28:00,
2013-02-28 07:33:00,27.9,18.8,28.85,NNE,15,4.2,6.3,65,0.00,,,0.00,WSDL version 420,2013-02-28 13:33:00,
2013-02-28 07:38:00,27.9,18.5,28.85,NNE,14,4.0,5.4,64,0.00,,,0.00,WSDL version 420,2013-02-28 13:38:00,
2013-02-28 07:43:00,27.9,18.5,28.85,NE,53,3.9,5.4,64,0.00,,,0.00,WSDL version 420,2013-02-28 13:43:00,
2013-02-28 07:48:00,27.9,18.5,28.85,North,11,4.7,7.4,64,0.00,,,0.00,WSDL version 420,2013-02-28 13:48:00,
2013-02-28 07:53:00,28.0,18.6,28.85,NNE,23,2.3,7.4,64,0.00,,,0.00,WSDL version 420,2013-02-28 13:53:00,
2013-02-28 07:58:00,28.0,18.5,28.85,NE,45,3.0,7.4,63,0.00,,,0.00,WSDL version 420,2013-02-28 13:58:00,
2013-02-28 08:08:00,28.1,18.7,28.85,North,5,2.4,4.9,64,0.00,,,0.00,WSDL version 420,2013-02-28 14:08:00,
2013-02-28 08:13:00,28.0,18.3,28.85,ENE,75,3.6,4.0,63,0.00,,,0.00,WSDL version 420,2013-02-28 14:13:00,
2013-02-28 08:18:00,28.2,18.4,28.85,ENE,62,3.0,4.9,63,0.00,,,0.00,WSDL version 420,2013-02-28 14:18:00,
2013-02-28 08:23:00,28.1,18.4,28.85,ENE,60,3.9,5.4,63,0.00,,,0.00,WSDL version 420,2013-02-28 14:23:00,
2013-02-28 08:28:00,28.1,18.4,28.85,East,83,5.5,6.3,63,0.00,,,0.00,WSDL version 420,2013-02-28 14:28:00,
2013-02-28 08:38:00,28.2,18.5,28.88,North,11,2.7,3.8,63,0.00,,,0.00,WSDL version 420,2013-02-28 14:38:00,
2013-02-28 08:43:00,28.3,18.5,28.88,East,83,1.7,4.3,63,0.00,,,0.00,WSDL version 420,2013-02-28 14:43:00,
2013-02-28 08:53:00,28.4,18.6,28.88,WNW,300,2.6,6.3,63,0.00,,,0.00,WSDL version 420,2013-02-28 14:53:00,
2013-02-28 08:58:00,28.4,18.6,28.88,ENE,75,3.6,6.3,63,0.00,,,0.00,WSDL version 420,2013-02-28 14:58:00,
2013-02-28 09:03:00,28.5,18.7,28.88,ENE,68,3.6,5.6,63,0.00,,,0.00,WSDL version 420,2013-02-28 15:03:00,
2013-02-28 09:08:00,28.5,18.6,28.88,NNE,28,3.8,5.4,62,0.00,,,0.00,WSDL version 420,2013-02-28 15:08:00,
2013-02-28 09:13:00,28.4,18.3,28.88,NE,53,3.4,5.4,62,0.00,,,0.00,WSDL version 420,2013-02-28 15:13:00,
2013-02-28 09:18:00,28.4,18.3,28.88,North,353,2.8,6.3,62,0.00,,,0.00,WSDL version 420,2013-02-28 15:18:00,
2013-02-28 09:23:00,28.5,18.4,28.88,ENE,75,3.1,6.3,62,0.00,,,0.00,WSDL version 420,2013-02-28 15:23:00,
2013-02-28 09:28:00,28.6,18.5,28.88,NE,45,2.9,7.6,62,0.00,,,0.00,WSDL version 420,2013-02-28 15:28:00,
2013-02-28 09:38:00,28.6,18.3,28.88,ENE,68,5.3,9.2,62,0.00,,,0.00,WSDL version 420,2013-02-28 15:38:00,
2013-02-28 09:43:00,28.6,18.2,28.88,NNE,23,3.1,9.2,61,0.00,,,0.00,WSDL version 420,2013-02-28 15:43:00,
2013-02-28 09:53:00,28.5,18.1,28.88,NE,45,4.4,7.4,61,0.00,,,0.00,WSDL version 420,2013-02-28 15:53:00,
2013-02-28 09:58:00,28.5,18.1,28.88,NNW,338,3.0,7.2,61,0.00,,,0.00,WSDL version 420,2013-02-28 15:58:00,
2013-02-28 10:03:00,28.6,17.8,28.88,North,353,3.8,8.5,60,0.00,,,0.00,WSDL version 420,2013-02-28 16:03:00,
2013-02-28 10:08:00,28.7,17.9,28.88,NNW,345,6.3,8.5,60,0.00,,,0.00,WSDL version 420,2013-02-28 16:08:00,
2013-02-28 10:13:00,28.8,18.0,28.88,North,360,3.6,6.5,60,0.00,,,0.00,WSDL version 420,2013-02-28 16:13:00,
2013-02-28 10:18:00,28.9,18.0,28.91,NNE,30,3.8,6.5,59,0.00,,,0.00,WSDL version 420,2013-02-28 16:18:00,
2013-02-28 10:23:00,28.9,17.8,28.91,NE,53,4.4,6.5,59,0.00,,,0.00,WSDL version 420,2013-02-28 16:23:00,
2013-02-28 10:28:00,29.0,17.9,28.91,North,8,4.4,5.8,59,0.00,,,0.00,WSDL version 420,2013-02-28 16:28:00,
2013-02-28 10:33:00,28.9,17.8,28.91,East,90,3.2,6.0,59,0.00,,,0.00,WSDL version 420,2013-02-28 16:33:00,
2013-02-28 10:38:00,29.0,17.5,28.91,NE,38,5.7,7.4,58,0.00,,,0.00,WSDL version 420,2013-02-28 16:38:00,
2013-02-28 10:43:00,29.0,17.5,28.91,NE,53,4.5,10.3,58,0.00,,,0.00,WSDL version 420,2013-02-28 16:43:00,
2013-02-28 10:48:00,29.2,17.7,28.91,NE,45,5.4,10.3,58,0.00,,,0.00,WSDL version 420,2013-02-28 16:48:00,
2013-02-28 10:53:00,29.4,17.9,28.91,East,98,3.5,5.8,58,0.00,,,0.00,WSDL version 420,2013-02-28 16:53:00,
2013-02-28 10:58:00,29.6,18.0,28.91,NE,45,1.7,5.6,57,0.00,,,0.00,WSDL version 420,2013-02-28 16:58:00,
2013-02-28 11:03:00,29.8,18.0,28.91,East,86,2.9,4.3,58,0.00,,,0.00,WSDL version 420,2013-02-28 17:03:00,
2013-02-28 11:08:00,30.0,18.1,28.91,NNE,15,3.7,7.4,57,0.00,,,0.00,WSDL version 420,2013-02-28 17:08:00,
2013-02-28 11:13:00,30.1,18.2,28.91,NNW,338,3.4,7.4,57,0.00,,,0.00,WSDL version 420,2013-02-28 17:13:00,
2013-02-28 11:18:00,30.3,18.2,28.91,East,98,5.1,6.5,56,0.00,,,0.00,WSDL version 420,2013-02-28 17:18:00,
2013-02-28 11:23:00,30.4,17.9,28.91,ENE,68,3.7,7.4,56,0.00,,,0.00,WSDL version 420,2013-02-28 17:23:00,
2013-02-28 11:28:00,30.7,18.1,28.91,ENE,75,5.7,7.8,55,0.00,,,0.00,WSDL version 420,2013-02-28 17:28:00,
2013-02-28 11:33:00,30.9,18.2,28.91,NNE,28,3.9,7.8,55,0.00,,,0.00,WSDL version 420,2013-02-28 17:33:00,
2013-02-28 11:38:00,31.0,18.4,28.91,ENE,60,3.6,8.5,56,0.00,,,0.00,WSDL version 420,2013-02-28 17:38:00,
2013-02-28 11:43:00,31.1,18.4,28.91,ENE,62,3.9,8.5,55,0.00,,,0.00,WSDL version 420,2013-02-28 17:43:00,
2013-02-28 11:48:00,31.2,18.5,28.91,East,90,3.8,7.6,55,0.00,,,0.00,WSDL version 420,2013-02-28 17:48:00,
2013-02-28 11:53:00,31.0,18.4,28.91,North,360,4.8,6.7,55,0.00,,,0.00,WSDL version 420,2013-02-28 17:53:00,
2013-02-28 11:58:00,31.4,18.3,28.91,NE,34,4.1,6.3,54,0.00,,,0.00,WSDL version 420,2013-02-28 17:58:00,
2013-02-28 12:03:00,31.6,18.9,28.91,NE,34,3.3,5.8,55,0.00,,,0.00,WSDL version 420,2013-02-28 18:03:00,
2013-02-28 12:08:00,31.9,19.2,28.91,NNE,23,4.2,6.3,55,0.00,,,0.00,WSDL version 420,2013-02-28 18:08:00,
2013-02-28 12:13:00,32.2,17.8,28.91,NE,56,3.5,6.3,55,0.00,,,0.00,WSDL version 420,2013-02-28 18:13:00,
2013-02-28 12:18:00,32.0,19.1,28.91,NE,53,3.8,7.4,55,0.00,,,0.00,WSDL version 420,2013-02-28 18:18:00,
2013-02-28 12:23:00,32.0,18.7,28.91,East,90,4.3,7.4,55,0.00,,,0.00,WSDL version 420,2013-02-28 18:23:00,
2013-02-28 12:28:00,32.0,19.3,28.91,SW,233,1.8,7.8,55,0.00,,,0.00,WSDL version 420,2013-02-28 18:28:00,
2013-02-28 12:33:00,32.1,18.1,28.91,NE,56,4.6,8.5,54,0.00,,,0.00,WSDL version 420,2013-02-28 18:33:00,
2013-02-28 12:38:00,32.1,18.3,28.91,North,349,3.1,8.5,55,0.00,,,0.00,WSDL version 420,2013-02-28 18:38:00,
2013-02-28 12:43:00,32.0,19.3,28.91,ENE,75,6.3,8.1,55,0.00,,,0.00,WSDL version 420,2013-02-28 18:43:00,
2013-02-28 12:48:00,32.0,19.3,28.91,ENE,60,4.8,8.1,55,0.00,,,0.00,WSDL version 420,2013-02-28 18:48:00,
2013-02-28 12:53:00,32.2,17.8,28.91,North,353,3.8,6.5,55,0.00,,,0.00,WSDL version 420,2013-02-28 18:53:00,
2013-02-28 12:58:00,32.1,18.8,28.91,NE,38,3.2,6.5,56,0.00,,,0.00,WSDL version 420,2013-02-28 18:58:00,
2013-02-28 13:03:00,31.9,19.2,28.91,North,5,3.4,7.6,55,0.00,,,0.00,WSDL version 420,2013-02-28 19:03:00,
2013-02-28 13:08:00,32.0,19.3,28.91,NE,45,4.1,7.6,55,0.00,,,0.00,WSDL version 420,2013-02-28 19:08:00,
2013-02-28 13:13:00,32.2,18.6,28.91,North,8,2.8,6.0,56,0.00,,,0.00,WSDL version 420,2013-02-28 19:13:00,
2013-02-28 13:18:00,32.1,18.8,28.91,ENE,68,2.2,6.0,55,0.00,,,0.00,WSDL version 420,2013-02-28 19:18:00,
2013-02-28 13:23:00,32.0,19.3,28.91,North,354,4.7,6.0,55,0.00,,,0.00,WSDL version 420,2013-02-28 19:23:00,
2013-02-28 13:28:00,31.8,19.1,28.91,NE,45,4.3,5.8,55,0.00,,,0.00,WSDL version 420,2013-02-28 19:28:00,
2013-02-28 13:38:00,31.8,19.1,28.91,NNE,23,2.9,6.3,55,0.00,,,0.00,WSDL version 420,2013-02-28 19:38:00,
2013-02-28 13:43:00,31.8,19.1,28.91,North,8,3.1,6.3,55,0.00,,,0.00,WSDL version 420,2013-02-28 19:43:00,
2013-02-28 13:48:00,31.5,18.8,28.91,NNE,30,3.0,4.9,55,0.00,,,0.00,WSDL version 420,2013-02-28 19:48:00,
2013-02-28 13:53:00,31.8,19.3,28.91,NE,53,3.4,4.9,55,0.00,,,0.00,WSDL version 420,2013-02-28 19:53:00,
2013-02-28 14:03:00,31.7,19.0,28.91,North,354,3.3,6.9,55,0.00,,,0.00,WSDL version 420,2013-02-28 20:03:00,
2013-02-28 14:08:00,31.8,19.1,28.91,NE,38,1.9,6.3,55,0.00,,,0.00,WSDL version 420,2013-02-28 20:08:00,
2013-02-28 14:13:00,-999.0,-99.9,28.91,ENE,68,4.0,5.6,-999,-99.99,,,-99.99,WSDL version 420,2013-02-28 20:13:00,
2013-02-28 14:18:00,31.7,19.0,28.91,North,8,6.6,6.7,55,0.00,,,0.00,WSDL version 420,2013-02-28 20:18:00,
2013-02-28 14:23:00,31.6,18.9,28.91,East,90,5.1,7.8,55,0.00,,,0.00,WSDL version 420,2013-02-28 20:23:00,
2013-02-28 14:28:00,31.8,19.0,28.91,SSE,158,4.0,7.8,55,0.00,,,0.00,WSDL version 420,2013-02-28 20:28:00,
2013-02-28 14:33:00,31.6,18.9,28.91,North,6,5.0,6.3,55,0.00,,,0.00,WSDL version 420,2013-02-28 20:33:00,
2013-02-28 14:38:00,31.7,19.0,28.91,NE,53,3.1,6.3,55,0.00,,,0.00,WSDL version 420,2013-02-28 20:38:00,
2013-02-28 14:43:00,31.6,18.9,28.91,North,8,5.0,5.4,55,0.00,,,0.00,WSDL version 420,2013-02-28 20:43:00,
2013-02-28 14:48:00,32.0,18.7,28.91,East,84,2.6,5.4,55,0.00,,,0.00,WSDL version 420,2013-02-28 20:48:00,
2013-02-28 14:53:00,31.9,19.2,28.91,NE,53,6.6,7.2,55,0.00,,,0.00,WSDL version 420,2013-02-28 20:53:00,
2013-02-28 14:58:00,31.8,19.1,28.91,NNE,15,3.7,7.2,55,0.00,,,0.00,WSDL version 420,2013-02-28 20:58:00,
2013-02-28 15:03:00,31.4,18.7,28.91,NNE,15,3.7,9.2,55,0.00,,,0.00,WSDL version 420,2013-02-28 21:03:00,
2013-02-28 15:08:00,31.4,18.7,28.91,East,90,4.3,9.2,55,0.00,,,0.00,WSDL version 420,2013-02-28 21:08:00,
2013-02-28 15:13:00,31.5,18.8,28.91,NNE,17,3.5,5.8,55,0.00,,,0.00,WSDL version 420,2013-02-28 21:13:00,
2013-02-28 15:18:00,31.2,18.5,28.91,North,8,3.1,5.4,55,0.00,,,0.00,WSDL version 420,2013-02-28 21:18:00,
2013-02-28 15:23:00,31.5,18.9,28.91,East,83,2.5,4.9,56,0.00,,,0.00,WSDL version 420,2013-02-28 21:23:00,
2013-02-28 15:28:00,31.6,18.9,28.91,North,356,3.1,5.6,55,0.00,,,0.00,WSDL version 420,2013-02-28 21:28:00,
2013-02-28 15:33:00,31.3,18.6,28.91,NE,38,6.2,7.6,55,0.00,,,0.00,WSDL version 420,2013-02-28 21:33:00,
2013-02-28 15:38:00,31.3,18.6,28.91,ENE,68,2.2,7.6,55,0.00,,,0.00,WSDL version 420,2013-02-28 21:38:00,
2013-02-28 15:43:00,31.3,18.6,28.91,NE,34,4.4,5.4,55,0.00,,,0.00,WSDL version 420,2013-02-28 21:43:00,
2013-02-28 15:48:00,31.1,18.4,28.91,North,8,2.7,5.4,55,0.00,,,0.00,WSDL version 420,2013-02-28 21:48:00,
2013-02-28 15:53:00,31.1,18.4,28.91,North,353,3.7,3.8,55,0.00,,,0.00,WSDL version 420,2013-02-28 21:53:00,
2013-02-28 15:58:00,31.1,18.4,28.91,East,84,3.3,4.0,55,0.00,,,0.00,WSDL version 420,2013-02-28 21:58:00,
2013-02-28 16:03:00,31.0,18.3,28.91,North,360,2.1,6.0,55,0.00,,,0.00,WSDL version 420,2013-02-28 22:03:00,
2013-02-28 16:08:00,30.9,18.2,28.91,NNE,28,2.8,6.0,55,0.00,,,0.00,WSDL version 420,2013-02-28 22:08:00,
2013-02-28 16:13:00,30.7,18.0,28.91,North,353,4.0,5.4,55,0.00,,,0.00,WSDL version 420,2013-02-28 22:13:00,
2013-02-28 16:18:00,-999.0,-99.9,28.91,NE,34,4.6,6.3,-999,0.00,,,0.00,WSDL version 420,2013-02-28 22:18:00,
2013-02-28 16:23:00,30.3,17.7,28.91,NNE,15,3.3,6.3,55,0.00,,,0.00,WSDL version 420,2013-02-28 22:23:00,
2013-02-28 16:28:00,30.1,17.5,28.91,NE,53,4.6,7.6,55,0.00,,,0.00,WSDL version 420,2013-02-28 22:28:00,
2013-02-28 16:33:00,30.0,17.5,28.91,ENE,75,1.7,7.6,56,0.00,,,0.00,WSDL version 420,2013-02-28 22:33:00,
2013-02-28 16:43:00,30.1,17.8,28.91,ENE,62,2.3,6.0,56,0.00,,,0.00,WSDL version 420,2013-02-28 22:43:00,
2013-02-28 16:48:00,30.1,17.8,28.91,NE,38,1.5,6.0,56,0.00,,,0.00,WSDL version 420,2013-02-28 22:48:00,
2013-02-28 16:53:00,30.2,17.9,28.91,ENE,73,2.2,6.0,56,0.00,,,0.00,WSDL version 420,2013-02-28 22:53:00,
2013-02-28 16:58:00,30.0,17.5,28.91,North,360,3.9,5.4,55,0.00,,,0.00,WSDL version 420,2013-02-28 22:58:00,
2013-02-28 17:03:00,29.6,17.0,28.91,NE,53,3.5,5.6,55,0.00,,,0.00,WSDL version 420,2013-02-28 23:03:00,
2013-02-28 17:08:00,29.4,16.8,28.91,NNW,338,4.6,6.3,55,0.00,,,0.00,WSDL version 420,2013-02-28 23:08:00,
2013-02-28 17:13:00,29.3,16.7,28.91,North,8,1.9,6.3,55,0.00,,,0.00,WSDL version 420,2013-02-28 23:13:00,
2013-02-28 17:18:00,29.4,17.0,28.91,NE,56,1.1,4.3,56,0.00,,,0.00,WSDL version 420,2013-02-28 23:18:00,
2013-02-28 17:23:00,29.4,16.8,28.91,North,353,4.0,4.3,55,0.00,,,0.00,WSDL version 420,2013-02-28 23:23:00,
2013-02-28 17:33:00,29.1,16.5,28.91,North,360,4.4,4.9,55,0.00,,,0.00,WSDL version 420,2013-02-28 23:33:00,
2013-02-28 17:38:00,29.0,16.4,28.91,NNE,23,3.1,4.9,55,0.00,,,0.00,WSDL version 420,2013-02-28 23:38:00,
2013-02-28 17:43:00,28.8,16.2,28.91,NE,38,3.2,3.8,55,0.00,,,0.00,WSDL version 420,2013-02-28 23:43:00,
2013-02-28 17:48:00,28.8,16.3,28.91,NNE,23,2.6,3.8,56,0.00,,,0.00,WSDL version 420,2013-02-28 23:48:00,
2013-02-28 17:53:00,28.6,16.3,28.91,North,360,3.4,3.8,56,0.00,,,0.00,WSDL version 420,2013-02-28 23:53:00,
2013-02-28 17:58:00,28.3,16.1,28.91,NNW,329,3.0,4.0,56,0.00,,,0.00,WSDL version 420,2013-02-28 23:58:00,
2013-02-28 18:03:00,28.0,15.8,28.91,North,11,3.2,4.0,56,0.00,,,0.00,WSDL version 420,2013-03-01 00:03:00,
2013-02-28 18:13:00,27.3,15.6,28.91,North,360,2.8,4.0,57,0.00,,,0.00,WSDL version 420,2013-03-01 00:13:00,
2013-02-28 18:18:00,27.0,15.3,28.91,North,360,2.2,3.8,57,0.00,,,0.00,WSDL version 420,2013-03-01 00:18:00,
2013-02-28 18:23:00,-999.0,-99.9,28.91,North,360,5.7,5.8,-999,0.00,,,0.00,WSDL version 420,2013-03-01 00:23:00,
2013-02-28 18:28:00,26.7,15.0,28.91,North,360,3.6,5.8,57,0.00,,,0.00,WSDL version 420,2013-03-01 00:28:00,
2013-02-28 18:33:00,26.5,14.8,28.91,NNE,15,1.6,3.8,57,0.00,,,0.00,WSDL version 420,2013-03-01 00:33:00,
2013-02-28 18:38:00,26.2,14.6,28.91,NE,38,1.6,3.6,57,0.00,,,0.00,WSDL version 420,2013-03-01 00:38:00,
2013-02-28 18:48:00,25.9,14.6,28.91,North,8,1.7,4.7,58,0.00,,,0.00,WSDL version 420,2013-03-01 00:48:00,
2013-02-28 18:53:00,25.7,14.4,28.91,NNE,23,0.4,3.4,58,0.00,,,0.00,WSDL version 420,2013-03-01 00:53:00,
2013-02-28 18:58:00,25.5,14.2,28.91,NNW,338,2.1,2.5,58,0.00,,,0.00,WSDL version 420,2013-03-01 00:58:00,
2013-02-28 19:03:00,25.4,14.1,28.94,NNE,15,2.6,2.9,58,-99.99,,,-99.99,WSDL version 420,2013-03-01 01:03:00,
2013-02-28 19:13:00,25.1,14.0,28.94,NNE,23,1.0,2.2,59,0.00,,,0.00,WSDL version 420,2013-03-01 01:13:00,
2013-02-28 19:18:00,24.9,13.8,28.94,NNW,338,3.8,4.3,59,0.00,,,0.00,WSDL version 420,2013-03-01 01:18:00,
2013-02-28 19:23:00,24.7,13.8,28.94,North,353,2.6,4.3,59,0.00,,,0.00,WSDL version 420,2013-03-01 01:23:00,
2013-02-28 19:28:00,24.6,13.6,28.94,NE,45,1.0,3.6,59,0.00,,,0.00,WSDL version 420,2013-03-01 01:28:00,
2013-02-28 19:33:00,24.5,13.6,28.94,NNE,30,0.8,2.5,59,0.00,,,0.00,WSDL version 420,2013-03-01 01:33:00,
2013-02-28 19:38:00,24.4,13.5,28.94,NE,45,2.1,2.9,59,0.00,,,0.00,WSDL version 420,2013-03-01 01:38:00,
2013-02-28 19:43:00,24.1,13.3,28.94,North,8,1.0,2.9,60,0.00,,,0.00,WSDL version 420,2013-03-01 01:43:00,
2013-02-28 19:48:00,24.1,13.5,28.94,NE,34,0.8,2.7,60,0.00,,,0.00,WSDL version 420,2013-03-01 01:48:00,
2013-02-28 19:53:00,24.0,13.4,28.94,NE,45,0.4,2.7,60,0.00,,,0.00,WSDL version 420,2013-03-01 01:53:00,
2013-02-28 19:58:00,23.7,13.2,28.94,ENE,75,1.9,2.0,60,0.00,,,0.00,WSDL version 420,2013-03-01 01:58:00,
2013-02-28 20:08:00,23.5,13.3,28.94,NE,45,0.5,2.2,61,0.00,,,0.00,WSDL version 420,2013-03-01 02:08:00,
2013-02-28 20:13:00,23.4,13.2,28.94,NE,45,0.0,2.0,61,0.00,,,0.00,WSDL version 420,2013-03-01 02:13:00,
2013-02-28 20:18:00,23.1,12.9,28.94,NE,45,0.0,0.0,61,0.00,,,0.00,WSDL version 420,2013-03-01 02:18:00,
2013-02-28 20:23:00,23.0,13.1,28.94,NE,45,0.0,0.0,62,0.00,,,0.00,WSDL version 420,2013-03-01 02:23:00,
2013-02-28 20:28:00,22.8,13.0,28.94,NNE,23,0.0,0.0,62,0.00,,,0.00,WSDL version 420,2013-03-01 02:28:00,
2013-02-28 20:33:00,22.7,12.9,28.94,NNE,23,1.1,1.6,62,0.00,,,0.00,WSDL version 420,2013-03-01 02:33:00,
2013-02-28 20:38:00,22.5,12.7,28.94,NE,34,1.8,2.0,62,0.00,,,0.00,WSDL version 420,2013-03-01 02:38:00,
2013-02-28 20:43:00,22.5,12.6,28.94,North,8,1.4,2.0,62,0.00,,,0.00,WSDL version 420,2013-03-01 02:43:00,
2013-02-28 20:48:00,22.4,12.6,28.94,NE,45,1.0,2.0,62,0.00,,,0.00,WSDL version 420,2013-03-01 02:48:00,
2013-02-28 20:53:00,22.2,12.3,28.94,North,8,1.3,2.0,62,0.00,,,0.00,WSDL version 420,2013-03-01 02:53:00,
2013-02-28 20:58:00,22.1,12.6,28.94,NNE,23,1.1,2.0,63,0.00,,,0.00,WSDL version 420,2013-03-01 02:58:00,
2013-02-28 21:03:00,22.0,12.5,28.94,NE,56,0.6,1.6,63,0.00,,,0.00,WSDL version 420,2013-03-01 03:03:00,
2013-02-28 21:08:00,21.9,12.4,28.94,ENE,68,1.2,2.5,63,0.00,,,0.00,WSDL version 420,2013-03-01 03:08:00,
2013-02-28 21:13:00,21.9,12.4,28.94,ENE,60,1.3,2.9,63,0.00,,,0.00,WSDL version 420,2013-03-01 03:13:00,
2013-02-28 21:18:00,21.9,12.4,28.94,East,90,0.5,2.9,63,0.00,,,0.00,WSDL version 420,2013-03-01 03:18:00,
2013-02-28 21:23:00,21.8,12.5,28.94,East,101,1.0,3.6,64,0.00,,,0.00,WSDL version 420,2013-03-01 03:23:00,
2013-02-28 21:28:00,21.7,12.5,28.94,East,90,0.0,3.8,64,0.00,,,0.00,WSDL version 420,2013-03-01 03:28:00,
2013-02-28 21:33:00,21.6,12.4,28.94,NNE,23,1.4,3.8,64,0.00,,,0.00,WSDL version 420,2013-03-01 03:33:00,
2013-02-28 21:38:00,21.3,12.2,28.94,East,90,0.6,3.4,64,0.00,,,0.00,WSDL version 420,2013-03-01 03:38:00,
2013-02-28 21:43:00,21.3,12.2,28.94,East,90,0.0,2.0,64,0.00,,,0.00,WSDL version 420,2013-03-01 03:43:00,
2013-02-28 21:53:00,21.2,12.0,28.97,NE,45,0.6,1.3,64,0.00,,,0.00,WSDL version 420,2013-03-01 03:53:00,
2013-02-28 21:58:00,21.0,11.9,28.97,East,90,0.4,1.3,64,0.00,,,0.00,WSDL version 420,2013-03-01 03:58:00,
2013-02-28 22:03:00,20.9,11.8,28.97,NE,53,1.8,2.7,64,0.00,,,0.00,WSDL version 420,2013-03-01 04:03:00,
2013-02-28 22:08:00,20.8,11.8,28.97,East,90,1.8,2.7,65,0.00,,,0.00,WSDL version 420,2013-03-01 04:08:00,
2013-02-28 22:13:00,20.8,11.6,28.97,East,90,1.8,2.2,64,0.00,,,0.00,WSDL version 420,2013-03-01 04:13:00,
2013-02-28 22:18:00,20.7,11.6,28.97,NE,45,2.5,4.7,64,0.00,,,0.00,WSDL version 420,2013-03-01 04:18:00,
2013-02-28 22:23:00,20.7,11.6,28.97,East,90,1.7,4.7,64,0.00,,,0.00,WSDL version 420,2013-03-01 04:23:00,
2013-02-28 22:28:00,20.7,11.4,28.97,ESE,113,1.4,2.2,63,0.00,,,0.00,WSDL version 420,2013-03-01 04:28:00,
2013-02-28 22:33:00,20.7,11.2,28.97,East,83,1.1,3.1,63,0.00,,,0.00,WSDL version 420,2013-03-01 04:33:00,
2013-02-28 22:38:00,20.7,11.1,28.97,NE,56,1.8,3.4,62,0.00,,,0.00,WSDL version 420,2013-03-01 04:38:00,
2013-02-28 22:43:00,20.8,11.0,28.97,East,90,1.9,3.4,62,0.00,,,0.00,WSDL version 420,2013-03-01 04:43:00,
2013-02-28 22:48:00,20.7,10.9,28.94,ENE,68,2.8,4.3,62,0.00,,,0.00,WSDL version 420,2013-03-01 04:48:00,
2013-02-28 22:53:00,-999.0,-99.9,28.94,NE,56,3.0,4.3,-999,0.00,,,0.00,WSDL version 420,2013-03-01 04:53:00,
2013-02-28 22:58:00,20.8,11.1,28.94,East,79,2.6,3.6,62,0.00,,,0.00,WSDL version 420,2013-03-01 04:58:00,
2013-02-28 23:03:00,20.8,11.1,28.94,East,83,2.0,3.6,62,0.00,,,0.00,WSDL version 420,2013-03-01 05:03:00,
2013-02-28 23:08:00,20.8,11.1,28.94,NE,53,1.7,3.4,62,0.00,,,0.00,WSDL version 420,2013-03-01 05:08:00,
2013-02-28 23:13:00,20.8,10.8,28.94,NE,38,3.0,3.8,61,0.00,,,0.00,WSDL version 420,2013-03-01 05:13:00,
2013-02-28 23:18:00,20.7,10.6,28.97,ENE,75,3.4,3.8,61,0.00,,,0.00,WSDL version 420,2013-03-01 05:18:00,
2013-02-28 23:23:00,20.8,10.7,28.97,ENE,75,1.3,3.8,61,0.00,,,0.00,WSDL version 420,2013-03-01 05:23:00,
2013-02-28 23:28:00,20.7,10.6,28.97,NE,38,2.0,3.8,61,-99.99,,,-99.99,WSDL version 420,2013-03-01 05:28:00,
2013-02-28 23:33:00,20.5,10.7,28.97,ENE,60,3.1,3.8,62,0.00,,,0.00,WSDL version 420,2013-03-01 05:33:00,
2013-02-28 23:38:00,20.7,10.9,28.97,East,90,3.8,4.0,62,0.00,,,0.00,WSDL version 420,2013-03-01 05:38:00,
2013-02-28 23:43:00,20.7,10.8,28.97,ENE,75,3.4,6.3,61,0.00,,,0.00,WSDL version 420,2013-03-01 05:43:00,
2013-02-28 23:48:00,20.7,10.7,28.97,ESE,105,3.7,6.3,61,0.00,,,0.00,WSDL version 420,2013-03-01 05:48:00,
2013-02-28 23:53:00,20.7,10.6,28.97,NE,45,2.8,6.3,61,0.00,,,0.00,WSDL version 420,2013-03-01 05:53:00,
2013-02-28 23:58:00,20.5,10.5,28.97,East,84,1.7,6.3,61,0.00,,,0.00,WSDL version 420,2013-03-01 05:58:00,